Flag for Netherlands Weather past 2 weeks in Enschede, Netherlands

Now
57 °F

Light rain. Partly cloudy.


Feels Like: 54 °F
Forecast: 45 / 54 °F
Wind: 14 mph from Southwest

Location: Deelen

Current Time: Oct 20, 2014 at 6:29:34 AM

Latest Report: Oct 20, 2014 at 5:25 AM


Visibility: N/A

Pressure: 29.95 "Hg

Humidity: 94%

Dew point: 55 °F

Location of EnschedeLocation

Historic Weather in Enschede — Graph

°F

Enschede temperature yesterday

Maximum temperature yesterday: 72 °F (at 1:25 PM)
Minimum temperature yesterday: 59 °F (at 2:55 AM)
Average temperature yesterday: 63 °F

Past Weeks' High & Low Weather Summary

 TemperatureHumidityPressure
High72 °F (Oct 18, 3:55 PM)100% (Oct 5, 5:25 AM)30.09 "Hg (Oct 5, 5:25 AM)
Low46 °F (Oct 8, 4:55 AM)63% (Oct 7, 3:55 PM)29.45 "Hg (Oct 7, 9:55 AM)
Average57 °F90%29.79 "Hg
* Reported Oct 5 5:25 AM — Oct 20 5:25 AM, Enschede, Weather by CustomWeather, © 2014

Note: Actual official high and low records may vary slightly from our data, if they occured in-between our weather recording intervals... More about our weather records

Advertising

Enschede weather history for previous 24 hours

 ConditionsComfort  
Time TempWeatherWind HumidityBarometerVisibility
5:25 AM
Oct 20
57 °FLight rain. Partly cloudy.14 mph94%29.95 "HgN/A
4:55 AM57 °FPartly cloudy.14 mph88%29.95 "HgN/A
4:25 AM57 °FPassing clouds.14 mph94%29.95 "HgN/A
3:55 AM57 °FMostly cloudy.13 mph94%29.95 "HgN/A
3:25 AM57 °FPartly cloudy.13 mph94%29.95 "HgN/A
2:55 AM57 °FPassing clouds.14 mph94%29.95 "HgN/A
2:25 AM59 °FPassing clouds.14 mph88%29.95 "HgN/A
1:55 AM59 °FPassing clouds.16 mph88%29.95 "HgN/A
1:25 AM59 °FPassing clouds.16 mph88%29.95 "HgN/A
12:55 AM59 °FMostly cloudy.15 mph88%29.95 "HgN/A
12:25 AM59 °FMostly cloudy.14 mph88%29.95 "HgN/A
11:55 PM
Oct 19
59 °FPartly cloudy.16 mph88%29.95 "HgN/A
11:25 PM59 °FPassing clouds.15 mph82%29.98 "HgN/A
10:55 PM59 °FPassing clouds.15 mph82%29.98 "HgN/A
10:25 PM59 °FPassing clouds.12 mph82%29.95 "HgN/A
9:55 PM59 °FPassing clouds.9 mph82%29.95 "HgN/A
9:25 PM59 °FCool.12 mph82%29.95 "HgN/A
8:55 PM61 °FCool.12 mph83%29.95 "HgN/A
8:25 PM61 °FPassing clouds.13 mph83%29.92 "HgN/A
7:55 PM61 °FOvercast.12 mph88%29.92 "HgN/A
7:25 PM63 °FPartly sunny.13 mph83%29.92 "HgN/A
6:55 PM63 °FMild.13 mph88%29.92 "HgN/A
6:25 PM63 °FOvercast.12 mph88%29.92 "HgN/A
5:55 PM63 °FOvercast.13 mph94%29.92 "HgN/A
5:25 PM64 °FBroken clouds.12 mph94%29.92 "HgN/A
4:55 PM64 °FDrizzle. Broken clouds.9 mph94%29.92 "Hg6 mi
4:25 PM64 °FSprinkles. Partly sunny.17 mph94%29.92 "Hg4 mi
3:55 PM68 °FCloudy.17 mph73%29.92 "HgN/A
3:25 PM68 °FMostly cloudy.12 mph78%29.92 "HgN/A
2:55 PM70 °FCloudy.16 mph73%29.92 "HgN/A
2:25 PM72 °FBroken clouds.16 mph69%29.92 "HgN/A
1:55 PM70 °FBroken clouds.16 mph73%29.92 "HgN/A
1:25 PM72 °FBroken clouds.16 mph69%29.92 "HgN/A
12:55 PM70 °FPassing clouds.18 mph73%29.92 "HgN/A
12:25 PM70 °FOvercast.15 mph73%29.95 "HgN/A
11:55 AM68 °FScattered clouds.15 mph78%29.95 "HgN/A
11:25 AM66 °FOvercast.15 mph78%29.92 "HgN/A
10:55 AM66 °FMild.15 mph78%29.95 "HgN/A
10:25 AM64 °FMild.14 mph83%29.95 "HgN/A
9:55 AM63 °FPassing clouds.13 mph88%29.95 "HgN/A
9:25 AM61 °FCool.13 mph94%29.95 "HgN/A
8:55 AM61 °FPassing clouds.9 mph94%29.95 "HgN/A
8:25 AM59 °FPassing clouds.9 mph100%29.95 "HgN/A
7:55 AM61 °FPassing clouds.7 mph94%29.95 "HgN/A
7:25 AM59 °FPassing clouds.9 mph100%29.95 "HgN/A
6:55 AM61 °FCool.12 mph94%29.98 "HgN/A
6:25 AM61 °FPassing clouds.8 mph94%29.98 "HgN/A
Weather by CustomWeather, © 2014

See weather overviewHow to use our weather pages